TVS694 LKPR-EDDV

Flight info

Callsign TVS694
Flight time 0h 46m
Altitude 30000
Route VENOX DCT DEKOV Y621 ESLOR M748 BOLBO DCT BUREL P203 HLZ HLZ1Z
Aircraft B38M/M-SDE1FGHILORVWXY/HB1

Departure

Time 2026-05-01 13:21
Airport Václav Havel Airport Prague (LKPR)

Arrival

Time 2026-05-01 14:07
Airport Hannover Airport (EDDV)
Time Latitude Longitude Altitude Speed Heading
2026-05-01 12:47 50.10558 14.26345 1171 ft 0 kts 34°
2026-05-01 13:07 50.10533 14.26246 1171 ft 0 kts 122°
2026-05-01 13:13 50.10529 14.26255 1173 ft 2 kts 122°
2026-05-01 13:13 50.10515 14.26290 1172 ft 5 kts 124°
2026-05-01 13:13 50.10487 14.26353 1174 ft 8 kts 124°
2026-05-01 13:14 50.10450 14.26438 1174 ft 10 kts 124°
2026-05-01 13:14 50.10405 14.26541 1174 ft 12 kts 124°
2026-05-01 13:14 50.10349 14.26612 1176 ft 10 kts 192°
2026-05-01 13:14 50.10288 14.26557 1174 ft 10 kts 215°
2026-05-01 13:15 50.10230 14.26541 1176 ft 8 kts 141°
2026-05-01 13:15 50.10192 14.26613 1179 ft 10 kts 128°
2026-05-01 13:15 50.10132 14.26736 1183 ft 18 kts 127°
2026-05-01 13:15 50.10052 14.26902 1194 ft 19 kts 126°
2026-05-01 13:16 50.09990 14.27031 1199 ft 17 kts 127°
2026-05-01 13:16 50.09920 14.27180 1203 ft 20 kts 127°
2026-05-01 13:16 50.09818 14.27364 1206 ft 23 kts 134°
2026-05-01 13:17 50.09484 14.27879 1217 ft 22 kts 135°
2026-05-01 13:17 50.09407 14.27997 1217 ft 22 kts 143°
2026-05-01 13:18 50.09256 14.28229 1215 ft 7 kts 136°
2026-05-01 13:18 50.09209 14.28299 1214 ft 10 kts 142°
2026-05-01 13:18 50.09189 14.28303 1214 ft 2 kts 205°
2026-05-01 13:18 50.09164 14.28280 1214 ft 8 kts 209°
2026-05-01 13:19 50.09117 14.28229 1213 ft 10 kts 216°
2026-05-01 13:19 50.09062 14.28157 1211 ft 5 kts 248°
2026-05-01 13:19 50.09082 14.28091 1210 ft 4 kts 307°
2026-05-01 13:20 50.09099 14.28055 1211 ft 4 kts 306°
2026-05-01 13:20 50.09117 14.28019 1212 ft 4 kts 307°
2026-05-01 13:20 50.09196 14.27855 1213 ft 52 kts 307°
2026-05-01 13:21 50.10230 14.25709 1368 ft 175 kts 309°
2026-05-01 13:21 50.10972 14.24144 2323 ft 179 kts 307°
2026-05-01 13:21 50.11851 14.22744 3177 ft 192 kts 328°
2026-05-01 13:21 50.13239 14.22121 3467 ft 232 kts
2026-05-01 13:22 50.14747 14.23114 4303 ft 242 kts 33°
2026-05-01 13:22 50.16188 14.24382 5428 ft 242 kts 25°
2026-05-01 13:22 50.17814 14.25118 6408 ft 251 kts
2026-05-01 13:22 50.19594 14.24733 7160 ft 270 kts 348°
2026-05-01 13:23 50.21441 14.23988 8079 ft 274 kts 348°
2026-05-01 13:23 50.23291 14.23224 9162 ft 277 kts 348°
2026-05-01 13:23 50.25039 14.22488 10014 ft 283 kts 348°
2026-05-01 13:23 50.26840 14.21720 10907 ft 286 kts 348°
2026-05-01 13:24 50.28808 14.20871 11533 ft 301 kts 348°
2026-05-01 13:24 50.30882 14.19971 12033 ft 319 kts 348°
2026-05-01 13:24 50.33078 14.19015 12460 ft 337 kts 348°
2026-05-01 13:25 50.37737 14.17062 13846 ft 349 kts 355°
2026-05-01 13:25 50.40154 14.16609 14569 ft 353 kts 357°
2026-05-01 13:25 50.42606 14.16133 15298 ft 356 kts 357°
2026-05-01 13:25 50.45071 14.15629 15992 ft 360 kts 356°
2026-05-01 13:26 50.47563 14.15102 16676 ft 363 kts 356°
2026-05-01 13:26 50.50080 14.14558 17371 ft 366 kts 356°
2026-05-01 13:26 50.52621 14.14006 18035 ft 370 kts 356°
2026-05-01 13:26 50.55182 14.13546 18675 ft 370 kts
2026-05-01 13:27 50.57726 14.13987 19239 ft 369 kts 11°
2026-05-01 13:27 50.60280 14.14568 19768 ft 373 kts 11°
2026-05-01 13:27 50.65451 14.15785 20904 ft 378 kts 11°
2026-05-01 13:28 50.70691 14.17040 22015 ft 384 kts 11°
2026-05-01 13:28 50.72442 14.17461 22377 ft 386 kts 11°
2026-05-01 13:29 50.77783 14.18748 23485 ft 391 kts 11°
2026-05-01 13:29 50.83203 14.20057 24435 ft 396 kts 11°
2026-05-01 13:30 50.94262 14.20593 26119 ft 409 kts 355°
2026-05-01 13:31 50.99948 14.19396 26899 ft 415 kts 355°
2026-05-01 13:31 51.08235 14.15372 28079 ft 431 kts 325°
2026-05-01 13:32 51.12871 14.09184 28782 ft 438 kts 323°
2026-05-01 13:33 51.19831 13.99590 29866 ft 444 kts 322°
2026-05-01 13:33 51.24511 13.93073 30379 ft 447 kts 322°
2026-05-01 13:34 51.33852 13.80001 30378 ft 446 kts 321°
2026-05-01 13:35 51.40860 13.70143 30375 ft 451 kts 321°
2026-05-01 13:36 51.47941 13.60145 30380 ft 455 kts 321°
2026-05-01 13:36 51.55068 13.50046 30378 ft 456 kts 321°
2026-05-01 13:37 51.59816 13.43294 30376 ft 456 kts 321°
2026-05-01 13:37 51.64567 13.36517 30377 ft 456 kts 321°
2026-05-01 13:38 51.71680 13.26319 30373 ft 457 kts 320°
2026-05-01 13:39 51.76423 13.19496 30376 ft 457 kts 320°
2026-05-01 13:39 51.80780 13.12051 30383 ft 461 kts 306°
2026-05-01 13:40 51.84472 13.03563 30370 ft 462 kts 307°
2026-05-01 13:40 51.88137 12.95096 30372 ft 461 kts 307°
2026-05-01 13:41 51.91674 12.86886 30377 ft 462 kts 307°
2026-05-01 13:41 51.95344 12.78340 30375 ft 462 kts 307°
2026-05-01 13:42 51.99008 12.69779 30376 ft 462 kts 307°
2026-05-01 13:42 52.02656 12.61227 30379 ft 462 kts 307°
2026-05-01 13:43 52.06312 12.52627 30372 ft 462 kts 306°
2026-05-01 13:43 52.09962 12.44014 30386 ft 462 kts 306°
2026-05-01 13:44 52.13604 12.35388 30376 ft 463 kts 306°
2026-05-01 13:44 52.17074 12.27148 30378 ft 462 kts 306°
2026-05-01 13:45 52.20715 12.18468 30373 ft 463 kts 306°
2026-05-01 13:45 52.24345 12.09785 30377 ft 463 kts 306°
2026-05-01 13:46 52.27968 12.01090 30377 ft 463 kts 306°
2026-05-01 13:46 52.31587 11.92385 30368 ft 463 kts 306°
2026-05-01 13:47 52.34175 11.83590 30384 ft 466 kts 282°
2026-05-01 13:47 52.34677 11.72992 30369 ft 469 kts 274°
2026-05-01 13:48 52.34937 11.62544 30371 ft 469 kts 272°
2026-05-01 13:48 52.35153 11.51886 30365 ft 469 kts 272°
2026-05-01 13:49 52.35356 11.41230 30364 ft 469 kts 272°
2026-05-01 13:49 52.35549 11.30579 30382 ft 469 kts 272°
2026-05-01 13:50 52.35732 11.19916 30368 ft 469 kts 272°
2026-05-01 13:50 52.35906 11.09245 30366 ft 469 kts 272°
2026-05-01 13:51 52.36070 10.98575 30241 ft 469 kts 271°
2026-05-01 13:51 52.36149 10.93209 28435 ft 477 kts 271°
2026-05-01 13:51 52.36228 10.87763 26793 ft 481 kts 271°
2026-05-01 13:51 52.36385 10.82283 25188 ft 484 kts 278°
2026-05-01 13:52 52.37274 10.76997 24039 ft 478 kts 292°
2026-05-01 13:52 52.38486 10.72025 23042 ft 465 kts 292°
2026-05-01 13:52 52.39722 10.67177 21858 ft 457 kts 293°
2026-05-01 13:52 52.40963 10.62425 20699 ft 451 kts 294°
2026-05-01 13:53 52.42198 10.57760 19622 ft 444 kts 294°
2026-05-01 13:53 52.44636 10.48604 17372 ft 432 kts 293°
2026-05-01 13:53 52.45828 10.44128 16476 ft 422 kts 293°
2026-05-01 13:54 52.46980 10.39795 15809 ft 407 kts 292°
2026-05-01 13:54 52.48088 10.35618 15273 ft 392 kts 292°
2026-05-01 13:54 52.49155 10.31588 14805 ft 377 kts 292°
2026-05-01 13:54 52.50163 10.27777 14408 ft 362 kts 292°
2026-05-01 13:55 52.50939 10.24839 14116 ft 351 kts 292°
2026-05-01 13:55 52.51890 10.21232 13774 ft 337 kts 292°
2026-05-01 13:55 52.52710 10.17723 13451 ft 320 kts 280°
2026-05-01 13:55 52.52966 10.14203 13228 ft 303 kts 272°
2026-05-01 13:56 52.53127 10.10796 12710 ft 299 kts 271°
2026-05-01 13:56 52.53264 10.07386 12131 ft 298 kts 271°
2026-05-01 13:56 52.53384 10.04068 11632 ft 295 kts 270°
2026-05-01 13:56 52.53497 10.00711 11085 ft 293 kts 270°
2026-05-01 13:57 52.53604 9.97384 10596 ft 291 kts 270°
2026-05-01 13:57 52.53672 9.95185 10289 ft 290 kts 270°
2026-05-01 13:57 52.53801 9.90854 10089 ft 278 kts 270°
2026-05-01 13:57 52.53894 9.87678 9790 ft 282 kts 270°
2026-05-01 13:58 52.53989 9.84436 9429 ft 285 kts 270°
2026-05-01 13:58 52.54087 9.81189 9210 ft 283 kts 270°
2026-05-01 13:58 52.54194 9.77949 9230 ft 283 kts 270°
2026-05-01 13:58 52.54243 9.74769 9101 ft 278 kts 268°
2026-05-01 13:59 52.54299 9.71534 8472 ft 290 kts 269°
2026-05-01 13:59 52.54378 9.68183 7923 ft 297 kts 269°
2026-05-01 13:59 52.54467 9.64786 7504 ft 298 kts 270°
2026-05-01 13:59 52.54563 9.61392 7136 ft 297 kts 270°
2026-05-01 14:00 52.54662 9.58012 6771 ft 295 kts 270°
2026-05-01 14:00 52.54757 9.54776 6441 ft 293 kts 270°
2026-05-01 14:00 52.54854 9.51550 6080 ft 292 kts 270°
2026-05-01 14:00 52.54952 9.48215 5710 ft 292 kts 270°
2026-05-01 14:01 52.55049 9.44882 5324 ft 292 kts 269°
2026-05-01 14:01 52.55145 9.41601 5028 ft 282 kts 270°
2026-05-01 14:01 52.55060 9.38447 4557 ft 271 kts 251°
2026-05-01 14:01 52.54176 9.35860 4266 ft 251 kts 222°
2026-05-01 14:02 52.52826 9.34321 4168 ft 227 kts 197°
2026-05-01 14:02 52.51348 9.34100 3996 ft 211 kts 167°
2026-05-01 14:02 52.50063 9.35036 3795 ft 197 kts 140°
2026-05-01 14:02 52.49138 9.36590 3683 ft 187 kts 133°
2026-05-01 14:03 52.48272 9.38158 3660 ft 184 kts 129°
2026-05-01 14:03 52.47775 9.39829 3515 ft 182 kts 109°
2026-05-01 14:03 52.47650 9.40499 3484 ft 183 kts 109°
2026-05-01 14:03 52.47503 9.41296 3466 ft 184 kts 109°
2026-05-01 14:04 52.47171 9.43096 3453 ft 184 kts 108°
2026-05-01 14:04 52.46935 9.45176 2882 ft 202 kts 95°
2026-05-01 14:04 52.47018 9.47541 1786 ft 220 kts 86°
2026-05-01 14:04 52.47130 9.49082 1969 ft 190 kts 84°
2026-05-01 14:05 52.47442 9.51641 1529 ft 176 kts 89°
2026-05-01 14:05 52.47386 9.53577 1400 ft 159 kts 100°
2026-05-01 14:05 52.47216 9.55272 1192 ft 142 kts 101°
2026-05-01 14:05 52.47124 9.56997 1181 ft 165 kts 96°
2026-05-01 14:06 52.47058 9.58779 1072 ft 152 kts 96°
2026-05-01 14:06 52.46983 9.60484 756 ft 147 kts 97°
2026-05-01 14:06 52.46925 9.62083 587 ft 136 kts 95°
2026-05-01 14:06 52.46877 9.63648 408 ft 136 kts 94°
2026-05-01 14:07 52.46831 9.65212 247 ft 138 kts 93°
2026-05-01 14:07 52.46787 9.66693 188 ft 112 kts 93°
2026-05-01 14:07 52.46761 9.67575 189 ft 46 kts 93°
2026-05-01 14:08 52.46640 9.68164 182 ft 25 kts 142°
2026-05-01 14:08 52.46512 9.68326 180 ft 23 kts 141°
2026-05-01 14:08 52.46387 9.68485 180 ft 15 kts 143°
2026-05-01 14:08 52.46285 9.68608 180 ft 23 kts 143°
2026-05-01 14:09 52.46155 9.68776 180 ft 23 kts 142°
2026-05-01 14:09 52.46025 9.68937 180 ft 20 kts 143°
2026-05-01 14:09 52.45916 9.69073 180 ft 19 kts 143°
2026-05-01 14:09 52.45832 9.69177 180 ft 12 kts 142°
2026-05-01 14:10 52.45816 9.69198 180 ft 3 kts 142°
2026-05-01 14:10 52.45793 9.69227 180 ft 6 kts 142°
2026-05-01 14:10 52.45756 9.69274 180 ft 8 kts 142°
2026-05-01 14:10 52.45743 9.69327 180 ft 2 kts 68°
2026-05-01 14:11 52.45750 9.69342 180 ft 3 kts 61°
2026-05-01 14:11 52.45771 9.69461 180 ft 7 kts 59°
2026-05-01 14:11 52.45803 9.69532 180 ft 4 kts 53°
2026-05-01 14:12 52.45808 9.69543 180 ft 0 kts 53°